Time,TemperatureF,DewpointF,PressureIn,WindDirection,WindDirectionDegrees,WindSpeedMPH,WindSpeedGustMPH,Humidity,HourlyPrecipIn,Conditions,Clouds,dailyrainin,SoftwareType,DateUTC
2013-05-14 00:04:00,68.1,45.9,29.87,NNW,338,0.0,0.0,45,0.00,,,0.00,WUHU216HW,2013-05-14 07:04:00,
2013-05-14 00:09:00,67.8,45.6,29.87,NNW,338,0.0,0.0,45,0.00,,,0.00,WUHU216HW,2013-05-14 07:09:00,
2013-05-14 00:14:00,67.6,46.0,29.86,NNW,338,0.0,0.0,46,0.00,,,0.00,WUHU216HW,2013-05-14 07:14:00,
2013-05-14 00:19:00,67.6,46.0,29.86,NNW,338,0.0,0.0,46,0.00,,,0.00,WUHU216HW,2013-05-14 07:19:00,
2013-05-14 00:24:00,67.1,45.5,29.86,NNW,338,0.0,0.0,46,0.00,,,0.00,WUHU216HW,2013-05-14 07:24:00,
2013-05-14 00:29:00,66.9,45.3,29.86,NNW,338,0.0,0.0,46,0.00,,,0.00,WUHU216HW,2013-05-14 07:29:00,
2013-05-14 00:34:00,67.1,45.5,29.86,NNW,338,0.0,0.0,46,0.00,,,0.00,WUHU216HW,2013-05-14 07:34:00,
2013-05-14 00:39:00,66.9,45.3,29.86,NNW,338,0.0,0.0,46,0.00,,,0.00,WUHU216HW,2013-05-14 07:39:00,
2013-05-14 00:44:00,66.5,46.2,29.86,NNW,338,0.0,0.0,48,0.00,,,0.00,WUHU216HW,2013-05-14 07:44:00,
2013-05-14 00:49:00,66.5,46.2,29.86,NNW,338,0.0,0.0,48,0.00,,,0.00,WUHU216HW,2013-05-14 07:49:00,
2013-05-14 00:54:00,66.3,46.0,29.86,NNW,338,0.0,0.0,48,0.00,,,0.00,WUHU216HW,2013-05-14 07:54:00,
2013-05-14 00:59:00,66.3,47.2,29.86,NNW,338,0.0,0.0,50,0.00,,,0.00,WUHU216HW,2013-05-14 07:59:00,
2013-05-14 01:05:00,66.2,47.1,29.86,NNW,338,0.0,0.0,50,0.00,,,0.00,WUHU216HW,2013-05-14 08:05:00,
2013-05-14 01:10:00,65.8,46.1,29.86,NNW,338,0.0,0.0,49,0.00,,,0.00,WUHU216HW,2013-05-14 08:10:00,
2013-05-14 01:15:00,65.8,46.1,29.86,NNW,338,0.0,0.0,49,0.00,,,0.00,WUHU216HW,2013-05-14 08:15:00,
2013-05-14 01:20:00,65.6,45.9,29.87,NNW,338,0.0,0.0,49,0.00,,,0.00,WUHU216HW,2013-05-14 08:20:00,
2013-05-14 01:25:00,65.4,46.4,29.87,NNW,338,0.0,0.0,50,0.00,,,0.00,WUHU216HW,2013-05-14 08:25:00,
2013-05-14 01:30:00,65.1,46.5,29.87,NNW,338,0.0,0.0,51,0.00,,,0.00,WUHU216HW,2013-05-14 08:30:00,
2013-05-14 01:35:00,65.1,46.5,29.87,NNW,338,0.0,0.0,51,0.00,,,0.00,WUHU216HW,2013-05-14 08:35:00,
2013-05-14 01:40:00,64.9,46.3,29.87,NNW,338,0.0,0.0,51,0.00,,,0.00,WUHU216HW,2013-05-14 08:40:00,
2013-05-14 01:45:00,65.1,46.5,29.87,NNW,338,0.0,0.0,51,0.00,,,0.00,WUHU216HW,2013-05-14 08:45:00,
2013-05-14 01:50:00,64.7,46.1,29.87,NNW,338,0.0,0.0,51,0.00,,,0.00,WUHU216HW,2013-05-14 08:50:00,
2013-05-14 01:55:00,64.7,46.1,29.87,NNW,338,0.0,0.0,51,0.00,,,0.00,WUHU216HW,2013-05-14 08:55:00,
2013-05-14 02:00:00,64.7,46.1,29.87,NNW,338,0.0,0.0,51,0.00,,,0.00,WUHU216HW,2013-05-14 09:00:00,
2013-05-14 02:05:00,64.5,45.9,29.86,NNW,338,0.0,0.0,51,0.00,,,0.00,WUHU216HW,2013-05-14 09:05:00,
2013-05-14 02:10:00,64.5,46.9,29.87,NNW,338,0.0,0.0,53,0.00,,,0.00,WUHU216HW,2013-05-14 09:10:00,
2013-05-14 02:15:00,64.2,46.6,29.87,NNW,338,0.0,0.0,53,0.00,,,0.00,WUHU216HW,2013-05-14 09:15:00,
2013-05-14 02:20:00,64.2,46.4,29.86,NNW,338,0.0,0.0,53,0.00,,,0.00,WUHU216HW,2013-05-14 09:20:00,
2013-05-14 02:25:00,63.8,46.2,29.86,SW,225,0.0,0.0,53,0.00,,,0.00,WUHU216HW,2013-05-14 09:25:00,
2013-05-14 02:30:00,63.5,45.9,29.86,SW,225,0.0,0.0,53,0.00,,,0.00,WUHU216HW,2013-05-14 09:30:00,
2013-05-14 02:35:00,63.3,46.4,29.86,SW,225,0.0,0.0,55,0.00,,,0.00,WUHU216HW,2013-05-14 09:35:00,
2013-05-14 02:40:00,63.3,46.7,29.86,SW,225,0.0,0.0,55,0.00,,,0.00,WUHU216HW,2013-05-14 09:40:00,
2013-05-14 02:45:00,63.1,46.6,29.85,SW,225,0.0,0.0,55,0.00,,,0.00,WUHU216HW,2013-05-14 09:45:00,
2013-05-14 02:50:00,62.9,45.9,29.85,SW,225,0.0,0.0,54,0.00,,,0.00,WUHU216HW,2013-05-14 09:50:00,
2013-05-14 02:55:00,62.7,45.8,29.86,SW,225,0.0,0.0,54,0.00,,,0.00,WUHU216HW,2013-05-14 09:55:00,
2013-05-14 03:00:00,62.7,45.8,29.85,SW,225,0.0,0.0,54,0.00,,,0.00,WUHU216HW,2013-05-14 10:00:00,
2013-05-14 03:05:00,62.4,45.9,29.85,SSW,203,0.0,0.0,55,0.00,,,0.00,WUHU216HW,2013-05-14 10:05:00,
2013-05-14 03:10:00,62.2,45.3,29.85,SSW,203,0.0,0.0,54,0.00,,,0.00,WUHU216HW,2013-05-14 10:10:00,
2013-05-14 03:15:00,62.0,45.1,29.85,SSW,203,0.0,0.0,54,0.00,,,0.00,WUHU216HW,2013-05-14 10:15:00,
2013-05-14 03:20:00,61.8,44.9,29.84,SSW,203,0.0,0.0,54,0.00,,,0.00,WUHU216HW,2013-05-14 10:20:00,
2013-05-14 03:25:00,61.7,44.8,29.84,SSW,203,0.0,0.0,54,0.00,,,0.00,WUHU216HW,2013-05-14 10:25:00,
2013-05-14 03:30:00,61.7,44.8,29.84,SSW,203,0.0,0.0,54,0.00,,,0.00,WUHU216HW,2013-05-14 10:30:00,
2013-05-14 03:35:00,61.5,45.1,29.84,SSW,203,0.0,0.0,55,0.00,,,0.00,WUHU216HW,2013-05-14 10:35:00,
2013-05-14 03:40:00,61.3,44.9,29.84,SSW,203,0.0,0.0,55,0.00,,,0.00,WUHU216HW,2013-05-14 10:40:00,
2013-05-14 03:45:00,61.3,44.9,29.84,SSW,203,0.0,0.0,55,0.00,,,0.00,WUHU216HW,2013-05-14 10:45:00,
2013-05-14 03:50:00,60.9,44.6,29.84,SSW,203,0.0,0.0,55,0.00,,,0.00,WUHU216HW,2013-05-14 10:50:00,
2013-05-14 03:55:00,60.9,44.6,29.84,SSW,203,0.0,0.0,55,0.00,,,0.00,WUHU216HW,2013-05-14 10:55:00,
2013-05-14 04:00:00,60.8,44.5,29.84,SSW,203,0.0,0.0,55,0.00,,,0.00,WUHU216HW,2013-05-14 11:00:00,
2013-05-14 04:05:00,60.6,44.3,29.84,SSW,203,0.0,0.0,55,0.00,,,0.00,WUHU216HW,2013-05-14 11:05:00,
2013-05-14 04:10:00,60.4,44.1,29.83,SSW,203,0.0,0.0,55,0.00,,,0.00,WUHU216HW,2013-05-14 11:10:00,
2013-05-14 04:15:00,60.4,44.1,29.83,SSW,203,0.0,0.0,55,0.00,,,0.00,WUHU216HW,2013-05-14 11:15:00,
2013-05-14 04:20:00,60.2,43.9,29.82,SSW,203,0.0,0.0,55,0.00,,,0.00,WUHU216HW,2013-05-14 11:20:00,
2013-05-14 04:25:00,60.0,43.8,29.82,SSW,203,0.0,0.0,55,0.00,,,0.00,WUHU216HW,2013-05-14 11:25:00,
2013-05-14 04:30:00,59.9,43.6,29.82,SSW,203,0.0,0.0,55,0.00,,,0.00,WUHU216HW,2013-05-14 11:30:00,
2013-05-14 04:35:00,59.9,44.1,29.82,SSW,203,0.0,0.0,56,0.00,,,0.00,WUHU216HW,2013-05-14 11:35:00,
2013-05-14 04:40:00,59.7,44.4,29.82,SSW,203,0.0,0.0,57,0.00,,,0.00,WUHU216HW,2013-05-14 11:40:00,
2013-05-14 04:45:00,59.7,44.4,29.82,SSW,203,0.0,0.0,57,0.00,,,0.00,WUHU216HW,2013-05-14 11:45:00,
2013-05-14 04:50:00,59.7,44.4,29.82,SSW,203,0.0,0.0,57,0.00,,,0.00,WUHU216HW,2013-05-14 11:50:00,
2013-05-14 04:55:00,59.5,44.2,29.82,SSW,203,0.0,0.0,57,0.00,,,0.00,WUHU216HW,2013-05-14 11:55:00,
2013-05-14 05:00:00,59.3,44.0,29.82,SSW,203,0.0,0.0,57,0.00,,,0.00,WUHU216HW,2013-05-14 12:00:00,
2013-05-14 05:05:00,59.3,44.5,29.83,SSW,203,0.0,0.0,58,0.00,,,0.00,WUHU216HW,2013-05-14 12:05:00,
2013-05-14 05:10:00,59.1,44.8,29.83,SSW,203,0.0,0.0,59,0.00,,,0.00,WUHU216HW,2013-05-14 12:10:00,
2013-05-14 05:15:00,59.3,45.0,29.83,SW,225,0.0,0.0,59,0.00,,,0.00,WUHU216HW,2013-05-14 12:15:00,
2013-05-14 05:20:00,59.1,45.7,29.84,SW,225,0.0,0.0,61,0.00,,,0.00,WUHU216HW,2013-05-14 12:20:00,
2013-05-14 05:25:00,59.1,45.7,29.83,SSE,158,0.0,0.0,61,0.00,,,0.00,WUHU216HW,2013-05-14 12:25:00,
2013-05-14 05:30:00,59.0,45.1,29.83,SSE,158,0.0,0.0,60,0.00,,,0.00,WUHU216HW,2013-05-14 12:30:00,
2013-05-14 05:35:00,58.8,44.9,29.84,SSE,158,0.0,0.0,60,0.00,,,0.00,WUHU216HW,2013-05-14 12:35:00,
2013-05-14 05:41:00,58.8,44.9,29.84,SSE,158,0.0,0.0,60,0.00,,,0.00,WUHU216HW,2013-05-14 12:41:00,
2013-05-14 05:46:00,58.8,44.9,29.84,SSE,158,0.0,0.0,60,0.00,,,0.00,WUHU216HW,2013-05-14 12:46:00,
2013-05-14 05:51:00,58.6,44.8,29.84,South,180,0.0,0.0,60,0.00,,,0.00,WUHU216HW,2013-05-14 12:51:00,
2013-05-14 05:56:00,58.6,45.2,29.84,South,180,0.0,0.0,61,0.00,,,0.00,WUHU216HW,2013-05-14 12:56:00,
2013-05-14 06:01:00,58.8,45.3,29.84,South,180,0.0,0.0,61,0.00,,,0.00,WUHU216HW,2013-05-14 13:01:00,
2013-05-14 06:06:00,58.6,45.2,29.85,South,180,0.0,0.0,61,0.00,,,0.00,WUHU216HW,2013-05-14 13:06:00,
2013-05-14 06:11:00,58.6,45.2,29.85,South,180,0.0,0.0,61,0.00,,,0.00,WUHU216HW,2013-05-14 13:11:00,
2013-05-14 06:16:00,58.4,45.0,29.85,South,180,0.0,0.0,61,0.00,,,0.00,WUHU216HW,2013-05-14 13:16:00,
2013-05-14 06:21:00,58.4,45.0,29.85,South,180,0.0,0.0,61,0.00,,,0.00,WUHU216HW,2013-05-14 13:21:00,
2013-05-14 06:26:00,58.4,45.0,29.85,South,180,0.0,0.0,61,0.00,,,0.00,WUHU216HW,2013-05-14 13:26:00,
2013-05-14 06:31:00,58.4,45.4,29.84,South,180,0.0,0.0,62,0.00,,,0.00,WUHU216HW,2013-05-14 13:31:00,
2013-05-14 06:36:00,58.6,45.6,29.85,South,180,0.0,0.0,61,0.00,,,0.00,WUHU216HW,2013-05-14 13:36:00,
2013-05-14 06:41:00,58.6,45.6,29.85,South,180,0.0,0.0,62,0.00,,,0.00,WUHU216HW,2013-05-14 13:41:00,
2013-05-14 06:46:00,58.8,45.7,29.85,South,180,0.0,0.0,62,0.00,,,0.00,WUHU216HW,2013-05-14 13:46:00,
2013-05-14 06:51:00,59.1,46.5,29.85,South,180,0.0,0.0,63,0.00,,,0.00,WUHU216HW,2013-05-14 13:51:00,
2013-05-14 06:56:00,59.3,46.7,29.85,South,180,0.0,0.0,63,0.00,,,0.00,WUHU216HW,2013-05-14 13:56:00,
2013-05-14 07:01:00,59.7,47.1,29.85,South,180,0.0,0.0,63,0.00,,,0.00,WUHU216HW,2013-05-14 14:01:00,
2013-05-14 07:06:00,60.2,47.2,29.85,South,180,0.0,0.0,62,0.00,,,0.00,WUHU216HW,2013-05-14 14:06:00,
2013-05-14 07:11:00,60.4,47.4,29.85,South,180,0.0,0.0,62,0.00,,,0.00,WUHU216HW,2013-05-14 14:11:00,
2013-05-14 07:16:00,60.9,47.9,29.86,South,180,0.0,0.0,62,0.00,,,0.00,WUHU216HW,2013-05-14 14:16:00,
2013-05-14 07:21:00,61.7,49.4,29.86,South,180,0.0,0.0,64,0.00,,,0.00,WUHU216HW,2013-05-14 14:21:00,
2013-05-14 07:26:00,62.7,50.7,29.85,South,180,0.0,0.0,65,0.00,,,0.00,WUHU216HW,2013-05-14 14:26:00,
2013-05-14 07:31:00,63.6,52.0,29.85,South,180,0.0,0.0,66,0.00,,,0.00,WUHU216HW,2013-05-14 14:31:00,
2013-05-14 07:36:00,65.8,52.8,29.85,WNW,293,0.0,0.0,63,0.00,,,0.00,WUHU216HW,2013-05-14 14:36:00,
2013-05-14 07:41:00,66.5,53.1,29.85,WNW,293,0.0,0.0,62,0.00,,,0.00,WUHU216HW,2013-05-14 14:41:00,
2013-05-14 07:46:00,68.1,53.7,29.85,WNW,293,0.0,0.0,60,0.00,,,0.00,WUHU216HW,2013-05-14 14:46:00,
2013-05-14 07:51:00,68.9,53.0,29.85,NNW,338,0.0,0.0,57,0.00,,,0.00,WUHU216HW,2013-05-14 14:51:00,
2013-05-14 07:56:00,69.2,52.8,29.85,NNW,338,0.0,0.0,56,0.00,,,0.00,WUHU216HW,2013-05-14 14:56:00,
2013-05-14 08:01:00,69.8,52.8,29.86,NNW,338,0.0,0.0,55,0.00,,,0.00,WUHU216HW,2013-05-14 15:01:00,
2013-05-14 08:06:00,70.1,52.7,29.86,NNW,338,0.0,0.0,54,0.00,,,0.00,WUHU216HW,2013-05-14 15:06:00,
2013-05-14 08:11:00,70.3,52.8,29.86,NNW,338,0.0,0.0,54,0.00,,,0.00,WUHU216HW,2013-05-14 15:11:00,
2013-05-14 08:16:00,70.1,52.1,29.86,NNW,338,0.0,0.0,53,0.00,,,0.00,WUHU216HW,2013-05-14 15:16:00,
2013-05-14 08:21:00,69.9,52.5,29.86,North,0,0.0,0.0,54,0.00,,,0.00,WUHU216HW,2013-05-14 15:21:00,
2013-05-14 08:26:00,69.9,52.0,29.86,NW,315,0.0,0.0,53,0.00,,,0.00,WUHU216HW,2013-05-14 15:26:00,
2013-05-14 08:31:00,69.4,51.6,29.86,NW,315,0.0,0.0,53,0.00,,,0.00,WUHU216HW,2013-05-14 15:31:00,
2013-05-14 08:36:00,69.4,51.5,29.86,WSW,248,0.0,0.0,53,0.00,,,0.00,WUHU216HW,2013-05-14 15:36:00,
2013-05-14 08:41:00,69.6,51.6,29.86,WSW,248,0.0,0.0,53,0.00,,,0.00,WUHU216HW,2013-05-14 15:41:00,
2013-05-14 08:46:00,69.9,52.0,29.86,WSW,248,0.0,0.0,53,0.00,,,0.00,WUHU216HW,2013-05-14 15:46:00,
2013-05-14 08:51:00,69.9,52.0,29.86,WSW,248,0.0,1.7,53,0.00,,,0.00,WUHU216HW,2013-05-14 15:51:00,
2013-05-14 08:56:00,70.1,52.1,29.86,WSW,248,2.9,2.9,53,0.00,,,0.00,WUHU216HW,2013-05-14 15:56:00,
2013-05-14 09:01:00,70.3,52.3,29.86,WSW,248,0.0,2.9,53,0.00,,,0.00,WUHU216HW,2013-05-14 16:01:00,
2013-05-14 09:06:00,70.3,51.8,29.84,West,270,0.0,2.9,52,0.00,,,0.00,WUHU216HW,2013-05-14 16:06:00,
2013-05-14 09:11:00,70.7,51.6,29.85,WSW,248,0.6,0.6,51,0.00,,,0.00,WUHU216HW,2013-05-14 16:11:00,
2013-05-14 09:16:00,71.0,51.9,29.85,WSW,248,2.6,2.6,51,0.00,,,0.00,WUHU216HW,2013-05-14 16:16:00,
2013-05-14 09:21:00,71.6,52.4,29.85,WSW,248,0.6,2.6,51,0.00,,,0.00,WUHU216HW,2013-05-14 16:21:00,
2013-05-14 09:26:00,71.9,52.3,29.86,WSW,248,0.0,2.6,50,0.00,,,0.00,WUHU216HW,2013-05-14 16:26:00,
2013-05-14 09:31:00,72.5,52.1,29.85,WSW,248,2.6,2.6,49,0.00,,,0.00,WUHU216HW,2013-05-14 16:31:00,
2013-05-14 09:36:00,72.6,52.3,29.85,WSW,248,0.0,2.6,49,0.00,,,0.00,WUHU216HW,2013-05-14 16:36:00,
2013-05-14 09:41:00,73.0,52.0,29.85,WSW,248,2.9,2.9,48,0.00,,,0.00,WUHU216HW,2013-05-14 16:41:00,
2013-05-14 09:47:00,73.5,51.9,29.85,WSW,248,3.5,3.8,47,0.00,,,0.00,WUHU216HW,2013-05-14 16:47:00,
2013-05-14 09:52:00,73.7,51.7,29.85,WSW,248,0.0,3.8,46,0.00,,,0.00,WUHU216HW,2013-05-14 16:52:00,
2013-05-14 09:57:00,74.3,52.0,29.86,NW,315,4.6,4.6,46,0.00,,,0.00,WUHU216HW,2013-05-14 16:57:00,
2013-05-14 10:02:00,74.4,51.0,29.86,NW,315,2.0,4.6,44,0.00,,,0.00,WUHU216HW,2013-05-14 17:02:00,
2013-05-14 10:07:00,75.3,51.3,29.86,WSW,248,0.0,4.6,44,0.00,,,0.00,WUHU216HW,2013-05-14 17:07:00,
2013-05-14 10:12:00,75.9,51.7,29.85,NW,315,2.6,2.6,43,0.00,,,0.00,WUHU216HW,2013-05-14 17:12:00,
2013-05-14 10:17:00,76.4,52.2,29.85,North,0,0.0,2.6,43,0.00,,,0.00,WUHU216HW,2013-05-14 17:17:00,
2013-05-14 10:22:00,77.3,51.8,29.85,North,0,0.0,2.6,41,0.00,,,0.00,WUHU216HW,2013-05-14 17:22:00,
2013-05-14 10:27:00,77.9,52.3,29.85,North,0,0.0,1.7,41,0.00,,,0.00,WUHU216HW,2013-05-14 17:27:00,
2013-05-14 10:32:00,78.4,51.4,29.86,NNW,338,0.0,1.7,39,0.00,,,0.00,WUHU216HW,2013-05-14 17:32:00,
2013-05-14 10:37:00,79.1,52.0,29.86,North,0,3.3,3.3,39,0.00,,,0.00,WUHU216HW,2013-05-14 17:37:00,
2013-05-14 10:42:00,80.0,52.1,29.86,North,0,0.0,3.3,38,0.00,,,0.00,WUHU216HW,2013-05-14 17:42:00,
2013-05-14 10:47:00,80.2,51.4,29.87,North,0,0.6,5.1,37,0.00,,,0.00,WUHU216HW,2013-05-14 17:47:00,
2013-05-14 10:52:00,80.7,51.9,29.87,NW,315,0.0,5.1,37,0.00,,,0.00,WUHU216HW,2013-05-14 17:52:00,
2013-05-14 10:57:00,80.9,52.1,29.87,NNW,338,5.5,5.5,37,0.00,,,0.00,WUHU216HW,2013-05-14 17:57:00,
2013-05-14 11:02:00,81.1,52.2,29.87,NNW,338,5.3,5.5,37,0.00,,,0.00,WUHU216HW,2013-05-14 18:02:00,
2013-05-14 11:07:00,81.5,52.5,29.87,NNW,338,1.5,5.5,36,0.00,,,0.00,WUHU216HW,2013-05-14 18:07:00,
2013-05-14 11:12:00,81.6,51.9,29.87,North,0,3.5,5.1,36,0.00,,,0.00,WUHU216HW,2013-05-14 18:12:00,
2013-05-14 11:17:00,81.8,52.1,29.87,NNW,338,3.1,3.5,36,0.00,,,0.00,WUHU216HW,2013-05-14 18:17:00,
2013-05-14 11:22:00,82.4,52.4,29.87,NNW,338,3.8,3.8,36,0.00,,,0.00,WUHU216HW,2013-05-14 18:22:00,
2013-05-14 11:27:00,82.7,52.1,29.87,NNW,338,0.0,3.8,35,0.00,,,0.00,WUHU216HW,2013-05-14 18:27:00,
2013-05-14 11:32:00,82.9,52.2,29.87,WSW,248,0.0,3.8,35,0.00,,,0.00,WUHU216HW,2013-05-14 18:32:00,
2013-05-14 11:37:00,83.1,51.6,29.87,NNW,338,0.0,4.0,34,0.00,,,0.00,WUHU216HW,2013-05-14 18:37:00,
2013-05-14 11:42:00,83.4,51.9,29.87,NNW,338,0.0,4.0,34,0.00,,,0.00,WUHU216HW,2013-05-14 18:42:00,
2013-05-14 11:47:00,83.8,52.3,29.87,NNW,338,2.9,2.9,34,0.00,,,0.00,WUHU216HW,2013-05-14 18:47:00,
2013-05-14 11:52:00,84.3,51.9,29.87,WNW,293,0.0,2.9,33,0.00,,,0.00,WUHU216HW,2013-05-14 18:52:00,
2013-05-14 11:57:00,84.5,52.1,29.87,NNW,338,4.0,4.6,33,0.00,,,0.00,WUHU216HW,2013-05-14 18:57:00,
2013-05-14 12:02:00,84.5,52.1,29.87,NNW,338,4.0,4.6,33,0.00,,,0.00,WUHU216HW,2013-05-14 19:02:00,
2013-05-14 12:07:00,84.7,52.3,29.87,NW,315,2.4,4.9,33,0.00,,,0.00,WUHU216HW,2013-05-14 19:07:00,
2013-05-14 12:12:00,85.2,52.0,29.87,NW,315,0.0,4.9,32,0.00,,,0.00,WUHU216HW,2013-05-14 19:12:00,
2013-05-14 12:17:00,85.4,52.1,29.87,NW,315,1.3,2.4,32,0.00,,,0.00,WUHU216HW,2013-05-14 19:17:00,
2013-05-14 12:22:00,86.1,52.0,29.87,NNW,338,5.3,5.3,31,0.00,,,0.00,WUHU216HW,2013-05-14 19:22:00,
2013-05-14 12:27:00,86.1,52.0,29.87,NNW,338,5.3,6.7,31,0.00,,,0.00,WUHU216HW,2013-05-14 19:27:00,
2013-05-14 12:32:00,86.3,52.1,29.87,NW,315,0.0,6.7,31,0.00,,,0.00,WUHU216HW,2013-05-14 19:32:00,
2013-05-14 12:37:00,86.7,52.4,29.86,NW,315,0.0,0.0,31,0.00,,,0.00,WUHU216HW,2013-05-14 19:37:00,
2013-05-14 12:42:00,86.7,52.4,29.86,NNE,23,0.8,2.2,31,0.00,,,0.00,WUHU216HW,2013-05-14 19:42:00,
2013-05-14 12:47:00,87.6,52.5,29.86,SSE,158,0.0,2.2,30,0.00,,,0.00,WUHU216HW,2013-05-14 19:47:00,
2013-05-14 12:52:00,88.1,52.8,29.85,ESE,113,0.0,3.1,30,0.00,,,0.00,WUHU216HW,2013-05-14 19:52:00,
2013-05-14 12:57:00,88.5,52.0,29.85,NNE,23,4.0,4.0,29,0.00,,,0.00,WUHU216HW,2013-05-14 19:57:00,
2013-05-14 13:02:00,88.8,51.3,29.85,NNW,338,0.0,4.0,28,0.00,,,0.00,WUHU216HW,2013-05-14 20:02:00,
2013-05-14 13:07:00,89.0,51.4,29.85,NNW,338,0.0,3.5,28,0.00,,,0.00,WUHU216HW,2013-05-14 20:07:00,
2013-05-14 13:12:00,89.2,51.6,29.85,North,0,2.4,2.4,28,0.00,,,0.00,WUHU216HW,2013-05-14 20:12:00,
2013-05-14 13:17:00,89.2,50.5,29.85,NNW,338,0.0,2.4,27,0.00,,,0.00,WUHU216HW,2013-05-14 20:17:00,
2013-05-14 13:22:00,89.2,51.6,29.85,NW,315,0.0,2.9,28,0.00,,,0.00,WUHU216HW,2013-05-14 20:22:00,
2013-05-14 13:27:00,89.7,52.1,29.84,NNW,338,0.8,3.8,28,0.00,,,0.00,WUHU216HW,2013-05-14 20:27:00,
2013-05-14 13:32:00,90.5,52.7,29.84,NNW,338,2.6,3.8,28,0.00,,,0.00,WUHU216HW,2013-05-14 20:32:00,
2013-05-14 13:37:00,90.8,51.9,29.84,SSW,203,2.0,2.6,27,0.00,,,0.00,WUHU216HW,2013-05-14 20:37:00,
2013-05-14 13:42:00,91.4,51.3,29.84,NNW,338,6.0,6.0,26,0.00,,,0.00,WUHU216HW,2013-05-14 20:42:00,
2013-05-14 13:47:00,91.5,50.4,29.84,NW,315,6.0,6.0,25,0.00,,,0.00,WUHU216HW,2013-05-14 20:47:00,
2013-05-14 13:52:00,91.7,50.5,29.84,WNW,293,1.3,6.0,25,0.00,,,0.00,WUHU216HW,2013-05-14 20:52:00,
2013-05-14 13:57:00,92.1,51.9,29.84,SE,135,0.0,6.0,26,0.00,,,0.00,WUHU216HW,2013-05-14 20:57:00,
2013-05-14 14:02:00,92.8,50.3,29.84,NNE,23,0.0,2.0,24,0.00,,,0.00,WUHU216HW,2013-05-14 21:02:00,
2013-05-14 14:07:00,92.8,49.2,29.84,North,0,6.4,6.4,23,0.00,,,0.00,WUHU216HW,2013-05-14 21:07:00,
2013-05-14 14:12:00,93.2,49.5,29.84,NNW,338,0.2,6.4,23,0.00,,,0.00,WUHU216HW,2013-05-14 21:12:00,
2013-05-14 14:17:00,93.7,49.9,29.83,North,0,0.0,5.1,23,0.00,,,0.00,WUHU216HW,2013-05-14 21:17:00,
2013-05-14 14:22:00,94.6,49.5,29.83,SSW,203,0.0,5.1,22,0.00,,,0.00,WUHU216HW,2013-05-14 21:22:00,
2013-05-14 14:27:00,95.1,48.9,29.83,East,90,0.0,2.0,21,0.00,,,0.00,WUHU216HW,2013-05-14 21:27:00,
2013-05-14 14:32:00,95.1,46.4,29.83,North,0,0.6,2.0,19,0.00,,,0.00,WUHU216HW,2013-05-14 21:32:00,
2013-05-14 14:37:00,95.3,46.5,29.83,NNW,338,1.7,4.4,19,0.00,,,0.00,WUHU216HW,2013-05-14 21:37:00,
2013-05-14 14:42:00,95.3,46.5,29.83,West,270,0.0,4.4,19,0.00,,,0.00,WUHU216HW,2013-05-14 21:42:00,
2013-05-14 14:47:00,95.3,46.5,29.83,SE,135,0.0,1.7,19,0.00,,,0.00,WUHU216HW,2013-05-14 21:47:00,
2013-05-14 14:52:00,96.2,47.3,29.83,SE,135,2.4,2.4,19,0.00,,,0.00,WUHU216HW,2013-05-14 21:52:00,
2013-05-14 14:57:00,97.1,48.0,29.83,NNW,338,0.0,2.4,19,0.00,,,0.00,WUHU216HW,2013-05-14 21:57:00,
2013-05-14 15:02:00,97.8,48.6,29.83,SSE,158,0.0,5.8,19,0.00,,,0.00,WUHU216HW,2013-05-14 22:02:00,
2013-05-14 15:07:00,98.6,49.2,29.83,ESE,113,0.0,6.0,19,0.00,,,0.00,WUHU216HW,2013-05-14 22:07:00,
2013-05-14 15:12:00,98.9,49.5,29.82,NNW,338,0.0,6.0,19,0.00,,,0.00,WUHU216HW,2013-05-14 22:12:00,
2013-05-14 15:17:00,99.3,49.8,29.82,NNW,338,0.0,4.9,19,0.00,,,0.00,WUHU216HW,2013-05-14 22:17:00,
2013-05-14 15:22:00,100.0,50.4,29.82,South,180,0.0,0.0,19,0.00,,,0.00,WUHU216HW,2013-05-14 22:22:00,
2013-05-14 15:27:00,100.5,50.8,29.82,NW,315,0.0,0.0,19,0.00,,,0.00,WUHU216HW,2013-05-14 22:27:00,
2013-05-14 15:33:00,100.2,50.5,29.82,NNW,338,2.0,2.0,19,0.00,,,0.00,WUHU216HW,2013-05-14 22:33:00,
2013-05-14 15:38:00,99.3,49.8,29.82,NNW,338,1.7,2.0,19,0.00,,,0.00,WUHU216HW,2013-05-14 22:38:00,
2013-05-14 15:43:00,99.1,49.6,29.82,SSE,158,0.0,3.1,19,0.00,,,0.00,WUHU216HW,2013-05-14 22:43:00,
2013-05-14 15:48:00,99.3,49.8,29.82,West,270,0.0,3.1,19,0.00,,,0.00,WUHU216HW,2013-05-14 22:48:00,
2013-05-14 15:53:00,98.9,49.5,29.82,SE,135,0.0,3.1,19,0.00,,,0.00,WUHU216HW,2013-05-14 22:53:00,
2013-05-14 15:58:00,98.6,49.2,29.82,North,0,2.9,3.1,19,0.00,,,0.00,WUHU216HW,2013-05-14 22:58:00,
2013-05-14 16:03:00,98.2,48.9,29.82,NE,45,1.1,4.6,19,0.00,,,0.00,WUHU216HW,2013-05-14 23:03:00,
2013-05-14 16:08:00,97.7,48.5,29.82,NNE,23,1.1,4.6,19,0.00,,,0.00,WUHU216HW,2013-05-14 23:08:00,
2013-05-14 16:13:00,97.7,48.5,29.82,SW,225,0.0,3.8,19,0.00,,,0.00,WUHU216HW,2013-05-14 23:13:00,
2013-05-14 16:18:00,97.5,48.3,29.82,NNW,338,3.3,3.3,19,0.00,,,0.00,WUHU216HW,2013-05-14 23:18:00,
2013-05-14 16:23:00,96.9,47.9,29.82,ENE,68,0.0,3.3,19,0.00,,,0.00,WUHU216HW,2013-05-14 23:23:00,
2013-05-14 16:28:00,96.4,47.4,29.82,North,0,5.8,5.8,19,0.00,,,0.00,WUHU216HW,2013-05-14 23:28:00,
2013-05-14 16:33:00,96.4,47.4,29.82,NW,315,0.0,5.8,19,0.00,,,0.00,WUHU216HW,2013-05-14 23:33:00,
2013-05-14 16:38:00,96.2,47.3,29.82,NNW,338,2.2,3.8,19,0.00,,,0.00,WUHU216HW,2013-05-14 23:38:00,
2013-05-14 16:43:00,95.7,46.9,29.82,North,0,5.3,8.0,19,0.00,,,0.00,WUHU216HW,2013-05-14 23:43:00,
2013-05-14 16:48:00,95.3,46.5,29.82,NNE,23,0.0,8.0,19,0.00,,,0.00,WUHU216HW,2013-05-14 23:48:00,
2013-05-14 16:53:00,94.8,46.1,29.82,NNE,23,2.6,4.2,19,0.00,,,0.00,WUHU216HW,2013-05-14 23:53:00,
2013-05-14 16:58:00,94.4,45.8,29.81,North,0,2.4,6.9,19,0.00,,,0.00,WUHU216HW,2013-05-14 23:58:00,
2013-05-14 17:03:00,93.7,47.9,29.81,NNW,338,4.4,6.9,21,0.00,,,0.00,WUHU216HW,2013-05-15 00:03:00,
2013-05-14 17:08:00,93.3,47.4,29.81,North,0,5.3,6.0,21,0.00,,,0.00,WUHU216HW,2013-05-15 00:08:00,
2013-05-14 17:13:00,92.8,47.0,29.81,North,0,2.2,5.3,21,0.00,,,0.00,WUHU216HW,2013-05-15 00:13:00,
2013-05-14 17:18:00,92.4,46.7,29.81,North,0,2.2,5.3,21,0.00,,,0.00,WUHU216HW,2013-05-15 00:18:00,
2013-05-14 17:23:00,92.3,47.6,29.81,NNW,338,0.0,3.1,22,0.00,,,0.00,WUHU216HW,2013-05-15 00:23:00,
2013-05-14 17:28:00,92.3,48.7,29.81,NW,315,3.3,3.3,23,0.00,,,0.00,WUHU216HW,2013-05-15 00:28:00,
2013-05-14 17:33:00,91.7,48.3,29.81,NNW,338,4.6,4.6,23,0.00,,,0.00,WUHU216HW,2013-05-15 00:33:00,
2013-05-14 17:38:00,91.5,48.2,29.81,North,0,2.2,4.6,23,0.00,,,0.00,WUHU216HW,2013-05-15 00:38:00,
2013-05-14 17:43:00,91.2,47.9,29.81,North,0,2.4,4.6,23,0.00,,,0.00,WUHU216HW,2013-05-15 00:43:00,
2013-05-14 17:48:00,91.0,47.7,29.81,NE,45,2.0,2.4,23,0.00,,,0.00,WUHU216HW,2013-05-15 00:48:00,
2013-05-14 17:53:00,91.0,47.7,29.81,NW,315,6.0,6.0,23,0.00,,,0.00,WUHU216HW,2013-05-15 00:53:00,
2013-05-14 17:58:00,91.0,47.7,29.81,NE,45,2.2,6.0,23,0.00,,,0.00,WUHU216HW,2013-05-15 00:58:00,
2013-05-14 18:03:00,90.5,47.3,29.81,North,0,0.0,6.9,23,0.00,,,0.00,WUHU216HW,2013-05-15 01:03:00,
2013-05-14 18:08:00,90.5,47.3,29.81,North,0,4.4,8.2,23,0.00,,,0.00,WUHU216HW,2013-05-15 01:08:00,
2013-05-14 18:13:00,90.5,47.3,29.81,NNE,23,4.4,8.2,23,0.00,,,0.00,WUHU216HW,2013-05-15 01:13:00,
2013-05-14 18:18:00,89.9,47.9,29.81,NNW,338,0.0,4.4,24,0.00,,,0.00,WUHU216HW,2013-05-15 01:18:00,
2013-05-14 18:23:00,89.7,47.8,29.81,North,0,7.1,7.1,24,0.00,,,0.00,WUHU216HW,2013-05-15 01:23:00,
2013-05-14 18:28:00,89.2,48.4,29.81,NNW,338,1.5,7.1,25,0.00,,,0.00,WUHU216HW,2013-05-15 01:28:00,
2013-05-14 18:33:00,89.0,48.2,29.81,NNW,338,6.0,6.9,25,0.00,,,0.00,WUHU216HW,2013-05-15 01:33:00,
2013-05-14 18:38:00,89.0,49.3,29.81,West,270,0.0,6.9,26,0.00,,,0.00,WUHU216HW,2013-05-15 01:38:00,
2013-05-14 18:43:00,88.7,49.0,29.81,WNW,293,7.8,7.8,26,0.00,,,0.00,WUHU216HW,2013-05-15 01:43:00,
2013-05-14 18:48:00,88.5,47.8,29.81,North,0,2.0,7.8,25,0.00,,,0.00,WUHU216HW,2013-05-15 01:48:00,
2013-05-14 18:53:00,87.9,47.3,29.81,North,0,4.0,6.0,25,0.00,,,0.00,WUHU216HW,2013-05-15 01:53:00,
2013-05-14 18:58:00,87.4,46.9,29.81,NNW,338,3.5,4.0,25,0.00,,,0.00,WUHU216HW,2013-05-15 01:58:00,
2013-05-14 19:03:00,87.0,46.5,29.81,NNW,338,3.5,4.0,25,0.00,,,0.00,WUHU216HW,2013-05-15 02:03:00,
2013-05-14 19:08:00,86.7,46.2,29.81,NW,315,1.1,3.5,25,0.00,,,0.00,WUHU216HW,2013-05-15 02:08:00,
2013-05-14 19:13:00,86.3,47.0,29.81,North,0,4.9,4.9,26,0.00,,,0.00,WUHU216HW,2013-05-15 02:13:00,
2013-05-14 19:18:00,86.1,46.9,29.81,North,0,2.0,4.9,26,0.00,,,0.00,WUHU216HW,2013-05-15 02:18:00,
2013-05-14 19:23:00,85.6,46.4,29.81,North,0,0.0,4.0,26,0.00,,,0.00,WUHU216HW,2013-05-15 02:23:00,
2013-05-14 19:28:00,85.4,46.2,29.81,North,0,5.1,5.1,26,0.00,,,0.00,WUHU216HW,2013-05-15 02:28:00,
2013-05-14 19:33:00,85.1,47.0,29.81,North,0,0.0,5.1,27,0.00,,,0.00,WUHU216HW,2013-05-15 02:33:00,
2013-05-14 19:38:00,84.5,46.5,29.81,NNE,23,0.0,5.1,27,0.00,,,0.00,WUHU216HW,2013-05-15 02:38:00,
2013-05-14 19:43:00,84.3,46.4,29.82,NNW,338,0.0,0.0,27,0.00,,,0.00,WUHU216HW,2013-05-15 02:43:00,
2013-05-14 19:48:00,83.8,45.9,29.81,North,0,1.1,1.1,27,0.00,,,0.00,WUHU216HW,2013-05-15 02:48:00,
2013-05-14 19:53:00,83.1,45.3,29.82,North,0,0.0,1.1,27,0.00,,,0.00,WUHU216HW,2013-05-15 02:53:00,
2013-05-14 19:58:00,82.7,45.0,29.82,NNW,338,0.0,0.0,27,0.00,,,0.00,WUHU216HW,2013-05-15 02:58:00,
2013-05-14 20:03:00,82.2,44.5,29.82,NNW,338,0.0,0.0,27,0.00,,,0.00,WUHU216HW,2013-05-15 03:03:00,
2013-05-14 20:08:00,81.8,44.2,29.82,NNW,338,0.0,0.0,27,0.00,,,0.00,WUHU216HW,2013-05-15 03:08:00,
2013-05-14 20:13:00,81.5,43.9,29.82,NNW,338,0.0,0.0,27,0.00,,,0.00,WUHU216HW,2013-05-15 03:13:00,
2013-05-14 20:18:00,81.3,45.9,29.83,NNW,338,0.0,0.0,29,0.00,,,0.00,WUHU216HW,2013-05-15 03:18:00,
2013-05-14 20:23:00,80.9,45.6,29.83,NNW,338,0.0,0.0,29,0.00,,,0.00,WUHU216HW,2013-05-15 03:23:00,
2013-05-14 20:28:00,80.4,45.1,29.83,NNW,338,0.0,0.0,29,0.00,,,0.00,WUHU216HW,2013-05-15 03:28:00,
2013-05-14 20:34:00,80.2,45.0,29.83,NNW,338,2.4,2.4,29,0.00,,,0.00,WUHU216HW,2013-05-15 03:34:00,
2013-05-14 20:39:00,79.3,45.2,29.83,NNW,338,0.0,2.4,30,0.00,,,0.00,WUHU216HW,2013-05-15 03:39:00,
2013-05-14 20:44:00,79.1,45.1,29.83,NNW,338,0.0,0.0,30,0.00,,,0.00,WUHU216HW,2013-05-15 03:44:00,
2013-05-14 20:49:00,78.9,44.9,29.83,NNW,338,0.0,0.0,30,0.00,,,0.00,WUHU216HW,2013-05-15 03:49:00,
2013-05-14 20:54:00,78.4,44.4,29.84,WNW,293,0.0,0.0,30,0.00,,,0.00,WUHU216HW,2013-05-15 03:54:00,
2013-05-14 20:59:00,77.9,44.0,29.84,WNW,293,0.0,0.0,30,0.00,,,0.00,WUHU216HW,2013-05-15 03:59:00,
2013-05-14 21:04:00,77.9,44.0,29.84,WNW,293,0.0,0.0,30,0.00,,,0.00,WUHU216HW,2013-05-15 04:04:00,
2013-05-14 21:09:00,77.3,44.3,29.84,WNW,293,0.0,0.0,31,0.00,,,0.00,WUHU216HW,2013-05-15 04:09:00,
2013-05-14 21:14:00,77.0,44.0,29.84,WNW,293,0.0,0.0,31,0.00,,,0.00,WUHU216HW,2013-05-15 04:14:00,
2013-05-14 21:19:00,76.8,43.9,29.85,WNW,293,0.0,0.0,31,0.00,,,0.00,WUHU216HW,2013-05-15 04:19:00,
2013-05-14 21:24:00,76.2,43.4,29.84,North,0,0.0,0.0,31,0.00,,,0.00,WUHU216HW,2013-05-15 04:24:00,
2013-05-14 21:29:00,75.9,43.1,29.85,ENE,68,0.0,0.0,31,0.00,,,0.00,WUHU216HW,2013-05-15 04:29:00,
2013-05-14 21:34:00,75.5,44.4,29.85,SW,225,0.0,0.0,33,0.00,,,0.00,WUHU216HW,2013-05-15 04:34:00,
2013-05-14 21:39:00,75.3,44.1,29.85,SW,225,0.0,0.0,33,0.00,,,0.00,WUHU216HW,2013-05-15 04:39:00,
2013-05-14 21:44:00,74.8,43.6,29.86,West,270,0.0,0.0,33,0.00,,,0.00,WUHU216HW,2013-05-15 04:44:00,
2013-05-14 21:49:00,74.8,44.4,29.85,North,0,0.0,0.0,34,0.00,,,0.00,WUHU216HW,2013-05-15 04:49:00,
2013-05-14 21:54:00,74.4,44.0,29.86,East,90,0.0,0.0,34,0.00,,,0.00,WUHU216HW,2013-05-15 04:54:00,
2013-05-14 21:59:00,74.3,43.9,29.86,SSW,203,0.0,0.0,34,0.00,,,0.00,WUHU216HW,2013-05-15 04:59:00,
2013-05-14 22:04:00,73.7,44.9,29.86,North,0,0.0,0.0,36,0.00,,,0.00,WUHU216HW,2013-05-15 05:04:00,
2013-05-14 22:09:00,73.7,44.9,29.86,North,0,0.0,0.0,36,0.00,,,0.00,WUHU216HW,2013-05-15 05:09:00,
2013-05-14 22:14:00,73.5,44.7,29.86,North,0,0.0,0.0,36,0.00,,,0.00,WUHU216HW,2013-05-15 05:14:00,
2013-05-14 22:19:00,73.2,44.4,29.86,North,0,0.0,0.0,36,0.00,,,0.00,WUHU216HW,2013-05-15 05:19:00,
2013-05-14 22:24:00,73.0,45.0,29.86,NW,315,0.0,0.0,37,0.00,,,0.00,WUHU216HW,2013-05-15 05:24:00,
2013-05-14 22:29:00,72.8,44.9,29.86,NW,315,6.9,6.9,37,0.00,,,0.00,WUHU216HW,2013-05-15 05:29:00,
2013-05-14 22:34:00,72.5,44.6,29.87,NNW,338,1.5,6.9,37,0.00,,,0.00,WUHU216HW,2013-05-15 05:34:00,
2013-05-14 22:39:00,72.1,45.0,29.86,SSE,158,1.3,1.5,38,0.00,,,0.00,WUHU216HW,2013-05-15 05:39:00,
2013-05-14 22:44:00,71.9,44.8,29.87,SE,135,0.0,1.5,38,0.00,,,0.00,WUHU216HW,2013-05-15 05:44:00,
2013-05-14 22:49:00,71.7,44.7,29.87,North,0,0.0,0.0,38,0.00,,,0.00,WUHU216HW,2013-05-15 05:49:00,
2013-05-14 22:54:00,71.4,44.4,29.87,NW,315,0.0,0.0,38,0.00,,,0.00,WUHU216HW,2013-05-15 05:54:00,
2013-05-14 22:59:00,71.2,44.2,29.87,NNE,23,0.0,6.2,38,0.00,,,0.00,WUHU216HW,2013-05-15 05:59:00,
2013-05-14 23:04:00,70.7,43.7,29.87,NNW,338,1.5,6.2,38,0.00,,,0.00,WUHU216HW,2013-05-15 06:04:00,
2013-05-14 23:09:00,70.7,43.7,29.87,NNW,338,0.0,1.5,38,0.00,,,0.00,WUHU216HW,2013-05-15 06:09:00,
2013-05-14 23:14:00,70.5,44.3,29.87,NW,315,0.0,1.5,39,0.00,,,0.00,WUHU216HW,2013-05-15 06:14:00,
2013-05-14 23:19:00,70.1,44.0,29.87,WNW,293,0.0,5.8,39,0.00,,,0.00,WUHU216HW,2013-05-15 06:19:00,
2013-05-14 23:24:00,69.9,43.8,29.87,NNE,23,0.0,5.8,39,0.00,,,0.00,WUHU216HW,2013-05-15 06:24:00,
2013-05-14 23:29:00,69.9,44.5,29.88,NW,315,0.0,1.7,40,0.00,,,0.00,WUHU216HW,2013-05-15 06:29:00,
2013-05-14 23:34:00,69.4,44.0,29.88,North,0,4.0,4.0,40,0.00,,,0.00,WUHU216HW,2013-05-15 06:34:00,
2013-05-14 23:39:00,69.2,43.9,29.88,NW,315,0.0,4.0,40,0.00,,,0.00,WUHU216HW,2013-05-15 06:39:00,
2013-05-14 23:44:00,69.2,43.9,29.88,North,0,0.0,6.0,40,0.00,,,0.00,WUHU216HW,2013-05-15 06:44:00,
2013-05-14 23:49:00,68.9,43.6,29.88,NNW,338,0.0,6.0,40,0.00,,,0.00,WUHU216HW,2013-05-15 06:49:00,
2013-05-14 23:54:00,68.7,44.0,29.88,North,0,2.4,2.6,41,0.00,,,0.00,WUHU216HW,2013-05-15 06:54:00,
2013-05-14 23:59:00,68.3,43.7,29.88,NNW,338,0.0,2.4,41,0.00,,,0.00,WUHU216HW,2013-05-15 06:59:00,